[[{"header":{"parameterUnit":"m.s-1","parameterCategory":2,"la1":30.2991,"la2":30.254,"lo1":-89.0895,"lo2":-89.0444,"dy":0.0017,"dx":0.0017,"nx":28,"ny":28,"refTime":"2025-03-31T03:00:00:Z","depth":"0","parameterNumber":2,"parameterNumberName":"U-component_of_CURRENTS"},"data":[0,0,0,0,0,0,0,0,0,0,0,0,0,0,0,0,0,0,0,0,0,0,0,0,0,0,0,0,0,0,0,0,0,0,0,0,0,0,0,0,0,0,0,0,0,0,0,0,0,0,0,0,0,0,0,0,0,0,0.3574,0.3574,0,0.3603,0.3603,0.3603,0.3569,0.3568,0.3567,0.3567,0.3577,0.3578,0.3579,0,0,0,0,0,0,0,0,0,0,0,0,0,0.3504,0.3505,0.3574,0.3575,0.3575,0.3603,0.3603,0.3602,0.3569,0.3568,0.3567,0.3566,0.3577,0.3578,0.3579,0,0,0,0,0,0,0,0,0,0,0,0,0,0.3528,0.3505,0.3573,0.3566,0.3566,0.3603,0.3603,0.3602,0.3569,0.3568,0.3567,0.3566,0.3576,0.3578,0.3579,0.361,0,0,0.3583,0.3584,0,0,0,0,0,0,0,0,0.3527,0.353,0.3566,0.3567,0.3567,0.3586,0.3582,0.3606,0.3569,0.3562,0.3567,0.3565,0.3583,0.3584,0.3584,0.361,0.3611,0.3583,0.3584,0.3585,0.3585,0,0,0,0,0,0,0,0.3525,0.3529,0.3579,0.3568,0.3568,0.3567,0.3569,0.3586,0.3573,0.3563,0.3562,0.3574,0.3582,0.3582,0.3584,0.3611,0.3583,0.3585,0.3586,0.3586,0.369,0.3691,0,0,0,0,0,0,0.3534,0.3528,0.3579,0.3581,0.355,0.357,0.3571,0.3576,0.3574,0.3574,0.3575,0.3573,0.358,0.3582,0.3584,0.3612,0.3585,0.3586,0.3587,0.3688,0.369,0.3692,0,0,0,0,0,0,0.3532,0.3538,0.3577,0.356,0.3565,0.3573,0.3579,0.3578,0.3582,0.3585,0.3583,0.3581,0.358,0.3582,0.3616,0.3612,0.3587,0.3588,0.3686,0.3689,0.3691,0.3674,0,0,0,0,0,0,0.353,0.3537,0.3543,0.356,0.3567,0.3606,0.358,0.3579,0.3594,0.3591,0.359,0.3589,0.3579,0.3614,0.3617,0.3614,0.3589,0.3683,0.3687,0.369,0.3672,0.3676,0.3679,0,0,0,0,0,0.3527,0.3542,0.3543,0.3549,0.3575,0.3608,0.3611,0.3608,0.3596,0.3605,0.3611,0.3589,0.3638,0.3617,0.362,0.3617,0.3681,0.3686,0.369,0.3671,0.3675,0.3679,0,0,0,0,0,0,0.3523,0.3542,0.3542,0.3564,0.3589,0.3605,0.3616,0.3618,0.3629,0.3627,0.3617,0.3618,0.3649,0.3651,0.3628,0.3664,0.3656,0.3661,0.364,0.3644,0.3648,0.3648,0.3591,0,0,0,0,0,0.3526,0.3537,0.3562,0.3583,0.3593,0.3607,0.362,0.3625,0.364,0.3643,0.364,0.3651,0.3671,0.3671,0.3694,0.3712,0.3766,0.3716,0.372,0.3722,0.3729,0.3866,0.3882,0.3706,0.3706,0.3706,0,0,0.3536,0.3546,0.3555,0.3583,0.3596,0.3605,0.361,0.3639,0.3639,0.3646,0.3644,0.3671,0.3686,0.3706,0.3718,0.3701,0.3794,0.3728,0.3729,0.3735,0.3872,0.3889,0.3905,0.3709,0.3708,0.3708,0,0,0.3547,0.3565,0.3567,0.3585,0.3615,0.3623,0.3634,0.3655,0.3654,0.3676,0.3682,0.3716,0.3727,0.3739,0.3746,0.3791,0.3821,0.3793,0.3789,0.3921,0.3936,0.3951,0.4005,0.4025,0.3778,0.3778,0.3778,0,0.3554,0.3567,0.3579,0.3583,0.3616,0.3627,0.3654,0.3643,0.3671,0.3726,0.3675,0.3773,0.3741,0.3814,0.3782,0.3794,0.3861,0.376,0.3925,0.3941,0.3956,0.4009,0.403,0.3778,0.3778,0.3778,0.3778,0,0.3551,0.3574,0.3585,0.3587,0.3619,0.3655,0.366,0.3695,0.3701,0.3727,0.3817,0.3797,0.3873,0.384,0.3789,0.3885,0.3894,0.3925,0.3908,0.3972,0.4023,0.4046,0.3777,0.3777,0.3777,0.3778,0,0,0.3529,0.3577,0.3576,0.3605,0.3642,0.3668,0.3703,0.3783,0.3831,0.3848,0.3941,0.3916,0.3955,0.3965,0.3942,0.3976,0.4059,0.396,0.3967,0.4001,0.4318,0.4256,0.4274,0.4138,0.4143,0.4147,0.4297,0,0.3529,0.3561,0.3588,0.3631,0.3664,0.3728,0.3759,0.3834,0.3879,0.3953,0.4002,0.4055,0.3987,0.4008,0.405,0.4072,0.4127,0.4012,0.4263,0.4269,0.4197,0.4302,0.415,0.4268,0.4319,0.4323,0.4326,0,0.3502,0.3541,0.3594,0.3699,0.3719,0.3733,0.3868,0.3899,0.4026,0.4076,0.4197,0.423,0.4289,0.4202,0.4342,0.4285,0.4297,0.4296,0.4305,0.4273,0.4252,0.4223,0.4308,0.419,0.4362,0.4359,0.4356,0,0.3477,0.355,0.3607,0.3631,0.3723,0.3783,0.3839,0.396,0.4012,0.4165,0.4241,0.4379,0.4412,0.4512,0.4488,0.4447,0.4623,0.4601,0.4576,0.4569,0.45,0.448,0.4492,0.4736,0.4736,0.4735,0.4735,0,0.3468,0.3504,0.3591,0.3608,0.3678,0.3765,0.3847,0.3939,0.4067,0.4154,0.4291,0.4376,0.4488,0.4591,0.459,0.4655,0.4755,0.46,0.4632,0.4483,0.4461,0.4402,0.4361,0.4741,0.4739,0.4738,0.4737,0,0.3407,0.347,0.3522,0.3626,0.3654,0.3694,0.3807,0.3875,0.4018,0.4139,0.4198,0.4395,0.4554,0.4657,0.4782,0.4766,0.4715,0.4836,0.4602,0.4603,0.4445,0.4408,0.433,0.4199,0.4858,0.4858,0.4858,0,0.3374,0.3398,0.3487,0.351,0.3542,0.3615,0.3671,0.3818,0.3894,0.4139,0.4197,0.4407,0.4536,0.4729,0.4761,0.4854,0.471,0.4737,0.4626,0.4435,0.4421,0.4232,0.4113,0.4512,0.4509,0.4507,0.4505,0,0.3305,0.3333,0.3371,0.3418,0.3461,0.3516,0.361,0.3657,0.3853,0.3973,0.4142,0.4273,0.4502,0.4546,0.468,0.4702,0.4517,0.4688,0.4594,0.424,0.394,0.3828,0.4359,0.4483,0.4485,0.4487,0.4488,0.4489,0.323,0.3231,0.328,0.3311,0.3364,0.3402,0.3409,0.3533,0.3626,0.3791,0.3989,0.4131,0.4319,0.4496,0.4491,0.4393,0.4364,0.428,0.4277,0.4119,0.3909,0.4348,0.4445,0.4447,0.4448,0.445,0.4451,0,0.3125,0.3144,0.3177,0.3205,0.3216,0.3281,0.3353,0.3349,0.3408,0.3617,0.375,0.3911,0.4015,0.4132,0.4152,0.4006,0.3802,0.391,0.3619,0.3543,0.4048,0.3947,0.3815,0.3815,0.3815,0.3815,0.3815,0.3815,0.3072,0.3055,0.3074,0.3043,0.3066,0.3034,0.3041,0.3062,0.3161,0.3251,0.3338,0.3496,0.3746,0.3935,0.3833,0.3731,0.3427,0.3296,0.3272,0.365,0.3682,0.3713,0.3606,0.3405,0.3405,0.2594,0.2588,0.2584]},{"header":{"parameterUnit":"m.s-1","parameterCategory":2,"la1":30.2991,"la2":30.254,"lo1":-89.0895,"lo2":-89.0444,"dy":0.0017,"dx":0.0017,"nx":28,"ny":28,"refTime":"2025-03-31T03:00:00:Z","depth":"0","parameterNumber":3,"parameterNumberName":"V-component_of_CURRENTS"},"data":[0,0,0,0,0,0,0,0,0,0,0,0,0,0,0,0,0,0,0,0,0,0,0,0,0,0,0,0,0,0,0,0,0,0,0,0,0,0,0,0,0,0,0,0,0,0,0,0,0,0,0,0,0,0,0,0,0,0,-0.0039,-0.004,0,-0.0122,-0.0123,-0.0124,-0.0166,-0.0166,-0.0166,-0.0166,-0.0294,-0.0297,-0.03,0,0,0,0,0,0,0,0,0,0,0,0,0,0.0013,0.0013,-0.0039,-0.004,-0.0041,-0.0122,-0.0123,-0.0124,-0.0166,-0.0166,-0.0166,-0.0166,-0.0293,-0.0297,-0.0301,0,0,0,0,0,0,0,0,0,0,0,0,0,-0.0034,0.0012,-0.0039,-0.0071,-0.0075,-0.0121,-0.0123,-0.0124,-0.0166,-0.0166,-0.0166,-0.0166,-0.0291,-0.0296,-0.0301,-0.0333,0,0,-0.0317,-0.0319,0,0,0,0,0,0,0,0,-0.0031,-0.0036,-0.0066,-0.0069,-0.0073,-0.0133,-0.0151,-0.0196,-0.0166,-0.0133,-0.0166,-0.0166,-0.0244,-0.0253,-0.0269,-0.0339,-0.0345,-0.0317,-0.0321,-0.0323,-0.0324,0,0,0,0,0,0,0,-0.0028,-0.0033,-0.0073,-0.0067,-0.0071,-0.0105,-0.0111,-0.016,-0.0189,-0.0135,-0.0139,-0.0147,-0.0246,-0.0264,-0.0272,-0.0347,-0.0317,-0.0322,-0.0325,-0.0327,-0.0457,-0.0458,0,0,0,0,0,0,-0.0013,-0.003,-0.007,-0.0075,-0.0051,-0.0106,-0.0113,-0.0115,-0.0187,-0.0198,-0.0147,-0.0148,-0.0255,-0.0266,-0.0277,-0.0289,-0.0323,-0.0328,-0.033,-0.0457,-0.0457,-0.0458,0,0,0,0,0,0,-0.0011,-0.0015,-0.0067,-0.0054,-0.0063,-0.0106,-0.0108,-0.0116,-0.013,-0.0195,-0.0207,-0.0152,-0.0255,-0.027,-0.0316,-0.0295,-0.033,-0.0334,-0.0457,-0.0457,-0.0458,-0.0332,0,0,0,0,0,0,-0.0009,-0.0014,-0.0011,-0.0053,-0.0063,-0.0086,-0.0109,-0.0118,-0.0135,-0.0138,-0.0204,-0.0216,-0.0256,-0.0308,-0.0321,-0.0303,-0.0338,-0.0456,-0.0457,-0.0457,-0.0336,-0.0329,-0.0322,0,0,0,0,0,-0.0007,0.0005,-0.001,-0.0015,-0.0056,-0.0086,-0.0094,-0.0126,-0.0135,-0.0139,-0.0183,-0.0214,-0.0322,-0.0312,-0.0327,-0.031,-0.0456,-0.0457,-0.0457,-0.0339,-0.033,-0.0322,0,0,0,0,0,0,0.0027,0.0001,-0.0016,-0.0014,-0.0046,-0.0092,-0.0095,-0.0121,-0.0158,-0.0156,-0.0219,-0.0235,-0.0268,-0.0316,-0.0304,-0.0355,-0.0394,-0.0398,-0.0299,-0.0291,-0.0284,-0.0218,-0.0343,0,0,0,0,0,0.0037,0.0042,0.0001,0.0002,-0.0008,-0.0052,-0.0067,-0.0087,-0.0126,-0.0142,-0.019,-0.0243,-0.0286,-0.0307,-0.0359,-0.0386,-0.039,-0.0389,-0.0382,-0.0375,-0.0335,-0.032,-0.0305,-0.0461,-0.0461,-0.0461,0,0,0.0054,0.0036,0.004,0.001,-0.0014,-0.0008,-0.006,-0.0072,-0.0061,-0.0151,-0.0156,-0.0223,-0.0291,-0.0317,-0.0336,-0.0351,-0.0341,-0.0376,-0.0369,-0.0333,-0.0319,-0.0303,-0.0288,-0.0461,-0.0461,-0.0461,0,0,0.01,0.0072,0.0099,0.0079,0.0051,0.0024,0.0024,-0.0019,-0.0031,-0.006,-0.0113,-0.0156,-0.0239,-0.0263,-0.0291,-0.028,-0.0308,-0.0316,-0.0218,-0.0204,-0.0189,-0.0176,-0.0175,-0.0163,-0.0307,-0.0307,-0.0306,0,0.0123,0.0149,0.0099,0.0117,0.012,0.0048,0.0082,0.0056,0.0002,0.0011,-0.0046,-0.0123,-0.02,-0.0188,-0.0199,-0.0255,-0.0259,-0.0237,-0.0187,-0.0175,-0.0163,-0.0166,-0.0154,-0.0301,-0.0301,-0.0302,-0.0302,0,0.0194,0.021,0.0223,0.023,0.0219,0.0232,0.0194,0.0187,0.015,0.0124,0.0111,0.0013,-0.0017,-0.0071,-0.0139,-0.01,-0.0133,-0.0179,-0.019,-0.0139,-0.0147,-0.0136,-0.0292,-0.0294,-0.0296,-0.0298,0,0,0.0268,0.0277,0.0285,0.0318,0.0286,0.0297,0.0313,0.0322,0.0373,0.0288,0.0354,0.0232,0.0188,0.0154,0.007,0.0057,0.0093,-0.0025,-0.0027,0.0009,0.0126,0.0082,0.0088,0.0063,0.0065,0.0067,0.0086,0,0.0347,0.0422,0.0398,0.0473,0.0512,0.0465,0.0501,0.0497,0.047,0.0506,0.0423,0.043,0.0275,0.0272,0.0236,0.0135,0.0129,0.0093,0.0043,0.0042,0.0024,0.0101,0.0073,0.0087,0.0095,0.0097,0.0098,0,0.0441,0.0478,0.0569,0.0629,0.0646,0.0679,0.0745,0.0767,0.0779,0.0766,0.0752,0.0685,0.0654,0.0518,0.0415,0.0401,0.0285,0.0193,0.0191,0.0125,0.0019,0.0034,0.0105,-0.0108,0.0114,0.0113,0.0111,0,0.0545,0.0608,0.0693,0.0707,0.0751,0.0805,0.0835,0.0857,0.0909,0.0952,0.0997,0.0937,0.0926,0.0794,0.0563,0.0509,0.0453,0.0359,0.0219,0.0213,0.0171,0.0157,0.0066,0.0323,0.0322,0.0322,0.0322,0,0.0648,0.0721,0.0758,0.0807,0.0928,0.0928,0.1058,0.1076,0.1143,0.1239,0.1153,0.1218,0.0993,0.0907,0.0688,0.0497,0.0556,0.0278,0.0236,0.0206,0.0197,-0.0009,-0.0136,0.0323,0.0323,0.0323,0.0323,0,0.0747,0.0771,0.0872,0.0946,0.0979,0.1069,0.1179,0.1275,0.1325,0.1457,0.1488,0.1447,0.1347,0.1107,0.0896,0.0669,0.0357,0.0396,0.0367,0.0321,-0.0019,-0.0137,-0.0254,-0.0355,0.0275,0.0274,0.0274,0,0.0808,0.087,0.0965,0.1032,0.1071,0.1194,0.1285,0.1355,0.1453,0.1596,0.1676,0.1642,0.163,0.1314,0.0924,0.0599,0.0361,0.0342,0.0228,0.0001,-0.0162,-0.0258,-0.0341,0.0208,0.0207,0.0207,0.0206,0,0.0913,0.094,0.1011,0.1139,0.1245,0.1365,0.1499,0.1603,0.1714,0.1843,0.1987,0.2011,0.1721,0.1386,0.0927,0.067,0.0183,0.0313,0.0099,-0.0183,-0.0309,-0.0439,0.0139,0.0198,0.0199,0.0199,0.02,0.02,0.0979,0.1043,0.1128,0.1251,0.1369,0.1519,0.1639,0.1794,0.198,0.219,0.2199,0.2282,0.1783,0.1164,0.08,0.0112,0.0117,-0.0115,-0.0227,-0.0291,-0.0423,0.0137,0.0127,0.0127,0.0127,0.0128,0.0128,0,0.1044,0.1117,0.1238,0.138,0.151,0.156,0.1767,0.1903,0.2132,0.2335,0.2471,0.2267,0.1656,0.1028,0.0106,-0.035,-0.0531,-0.0598,-0.0747,-0.0797,-0.0274,-0.0315,-0.0446,-0.0446,-0.0445,-0.0445,-0.0445,-0.0445,0.1086,0.1193,0.1252,0.1465,0.1573,0.1757,0.1876,0.2089,0.2264,0.2504,0.2562,0.2568,0.2043,0.0449,-0.061,-0.0844,-0.1171,-0.1246,-0.1382,-0.1056,-0.102,-0.0986,-0.1054,-0.1337,-0.1338,-0.1867,-0.1872,-0.1877]}],[{"header":{"parameterUnit":"m.s-1","parameterCategory":2,"la1":30.2991,"la2":30.254,"lo1":-89.0895,"lo2":-89.0444,"dy":0.0017,"dx":0.0017,"nx":28,"ny":28,"refTime":"2025-03-31T03:00:00:Z","depth":"2","parameterNumber":2,"parameterNumberName":"U-component_of_CURRENTS"},"data":[0,0,0,0,0,0,0,0,0,0,0,0,0,0,0,0,0,0,0,0,0,0,0,0,0,0,0,0,0,0,0,0,0,0,0,0,0,0,0,0,0,0,0,0,0,0,0,0,0,0,0,0,0,0,0,0,0,0,0.2722,0.2723,0,0.2731,0.273,0.2729,0.2677,0.2676,0.2676,0.2676,0.267,0.267,0.267,0,0,0,0,0,0,0,0,0,0,0,0,0,0.2613,0.2615,0.2722,0.2723,0.2725,0.2731,0.273,0.2729,0.2677,0.2676,0.2676,0.2676,0.267,0.267,0.267,0,0,0,0,0,0,0,0,0,0,0,0,0,0.2633,0.2615,0.2722,0.2709,0.2709,0.2732,0.273,0.2729,0.2677,0.2676,0.2676,0.2675,0.267,0.267,0.267,0.268,0,0,0.2671,0.2671,0,0,0,0,0,0,0,0,0.2632,0.2635,0.271,0.271,0.271,0.2714,0.2691,0.2716,0.2677,0.2675,0.2676,0.2675,0.2692,0.2691,0.2675,0.268,0.268,0.2671,0.2671,0.2671,0.2671,0,0,0,0,0,0,0,0.2631,0.2634,0.2712,0.2712,0.2712,0.2688,0.2689,0.2694,0.2675,0.2675,0.2675,0.2697,0.269,0.2675,0.2674,0.268,0.2671,0.2671,0.2671,0.2671,0.2749,0.275,0,0,0,0,0,0,0.2659,0.2634,0.2712,0.2714,0.2684,0.2692,0.2692,0.2702,0.2676,0.2675,0.2697,0.2695,0.2674,0.2674,0.2674,0.2759,0.2671,0.2671,0.2671,0.2747,0.2749,0.2751,0,0,0,0,0,0,0.2657,0.2666,0.2712,0.2685,0.2691,0.2696,0.2706,0.2703,0.2702,0.2695,0.2691,0.2703,0.2674,0.2674,0.2719,0.2756,0.2671,0.2672,0.2744,0.2747,0.275,0.2882,0,0,0,0,0,0,0.2653,0.2664,0.2683,0.2687,0.2694,0.2752,0.2708,0.2704,0.2722,0.2719,0.27,0.2697,0.2674,0.2719,0.2719,0.2755,0.2672,0.2742,0.2746,0.2749,0.2875,0.2889,0.2901,0,0,0,0,0,0.2649,0.2681,0.2683,0.2694,0.2719,0.2756,0.2756,0.2748,0.2724,0.2739,0.2738,0.2698,0.2741,0.2722,0.2721,0.2758,0.274,0.2745,0.2749,0.2869,0.2886,0.2901,0,0,0,0,0,0,0.2678,0.2681,0.2682,0.2724,0.2754,0.2753,0.277,0.2763,0.2768,0.2778,0.2736,0.2736,0.2796,0.2757,0.2736,0.2789,0.2729,0.2733,0.282,0.2836,0.2849,0.2844,0.2672,0,0,0,0,0,0.269,0.2689,0.272,0.2757,0.277,0.277,0.2784,0.2799,0.2809,0.2808,0.2785,0.278,0.281,0.2808,0.2825,0.2849,0.2843,0.2867,0.288,0.2891,0.2887,0.2944,0.2962,0.2765,0.2765,0.2765,0,0,0.2706,0.2719,0.2716,0.2759,0.2767,0.28,0.2773,0.2826,0.2846,0.2812,0.2816,0.2842,0.2835,0.2881,0.2898,0.285,0.2946,0.2897,0.2907,0.2896,0.2951,0.297,0.2987,0.2768,0.2768,0.2767,0,0,0.2735,0.2756,0.2755,0.2782,0.2836,0.2853,0.2875,0.2892,0.2886,0.2926,0.2918,0.2969,0.2959,0.2977,0.2982,0.307,0.3035,0.3067,0.3105,0.3162,0.3179,0.3194,0.3224,0.324,0.3047,0.3047,0.3047,0,0.2731,0.2773,0.2773,0.2798,0.284,0.2875,0.2922,0.2923,0.2953,0.2973,0.2946,0.301,0.3004,0.3082,0.3106,0.3101,0.3117,0.3052,0.3181,0.3195,0.3208,0.3235,0.3252,0.3054,0.3053,0.3052,0.3052,0,0.2768,0.2806,0.2822,0.2849,0.29,0.2959,0.2994,0.3024,0.3034,0.3048,0.3128,0.3139,0.3172,0.3183,0.3165,0.3259,0.3239,0.3217,0.3146,0.3237,0.3259,0.3273,0.3064,0.3061,0.3059,0.3058,0,0,0.2696,0.2809,0.281,0.2832,0.2945,0.2967,0.3046,0.3116,0.3141,0.3182,0.3228,0.3287,0.3308,0.3315,0.3319,0.3347,0.3454,0.3312,0.3312,0.3348,0.3574,0.347,0.3475,0.3465,0.3468,0.3471,0.3558,0,0.2705,0.2755,0.2847,0.2908,0.293,0.3031,0.3076,0.3156,0.3213,0.3257,0.3318,0.3373,0.335,0.3388,0.3427,0.346,0.3497,0.3431,0.3473,0.3474,0.3377,0.349,0.3253,0.3303,0.3572,0.3574,0.3576,0,0.2692,0.2724,0.2807,0.2898,0.2919,0.2991,0.31,0.3158,0.3276,0.3321,0.3432,0.3472,0.3566,0.3514,0.3619,0.3584,0.3588,0.3592,0.3596,0.3456,0.3397,0.3252,0.3318,0.36,0.3598,0.3596,0.3594,0,0.2603,0.2683,0.2752,0.2787,0.2911,0.298,0.3057,0.3186,0.3238,0.3392,0.3454,0.3577,0.3631,0.3689,0.3699,0.368,0.3783,0.3759,0.3673,0.3665,0.3444,0.3411,0.3829,0.3829,0.3829,0.3829,0.3828,0,0.2577,0.2605,0.2701,0.2741,0.2778,0.2904,0.3004,0.3092,0.325,0.3329,0.3479,0.3548,0.3676,0.3742,0.3752,0.3755,0.3836,0.3702,0.3692,0.3482,0.3453,0.3681,0.3663,0.3832,0.3831,0.3831,0.383,0,0.2497,0.2582,0.263,0.2742,0.2762,0.2795,0.2963,0.3011,0.3184,0.331,0.337,0.3553,0.366,0.3747,0.3836,0.3799,0.3823,0.3792,0.3524,0.3481,0.3658,0.3646,0.3744,0.3741,0.3739,0.3737,0.3735,0,0.2467,0.2491,0.2589,0.2609,0.2684,0.2745,0.2787,0.296,0.3044,0.3283,0.3323,0.3497,0.3576,0.3683,0.369,0.3727,0.3779,0.3485,0.3403,0.3675,0.3656,0.3647,0.3638,0.3173,0.3167,0.3162,0.3158,0,0.2394,0.2458,0.2494,0.252,0.2571,0.2609,0.2705,0.2747,0.2959,0.3061,0.3197,0.3292,0.3448,0.3395,0.3455,0.3433,0.3471,0.3383,0.3766,0.322,0.314,0.312,0.313,0.3114,0.3118,0.3122,0.3124,0.3126,0.2321,0.2312,0.2373,0.2392,0.2433,0.2466,0.2464,0.2571,0.2649,0.2789,0.2961,0.3029,0.3139,0.3117,0.3045,0.3016,0.3245,0.3116,0.313,0.315,0.3057,0.2977,0.2902,0.2904,0.2907,0.291,0.2912,0,0.2203,0.2223,0.2227,0.2255,0.2245,0.2341,0.2378,0.2353,0.2373,0.2555,0.2652,0.2518,0.2537,0.2646,0.2549,0.2561,0.2527,0.2457,0.24,0.2448,0.2491,0.236,0.2022,0.2018,0.2015,0.2012,0,0,0.2144,0.2114,0.2115,0.2051,0.2085,0.2048,0.2048,0.2014,0.2086,0.2096,0.2156,0.2401,0.2569,0.2238,0.2231,0.2107,0.2245,0.203,0.276,0.2741,0.2778,0.2906,0.2766,0,0,0,0,0]},{"header":{"parameterUnit":"m.s-1","parameterCategory":2,"la1":30.2991,"la2":30.254,"lo1":-89.0895,"lo2":-89.0444,"dy":0.0017,"dx":0.0017,"nx":28,"ny":28,"refTime":"2025-03-31T03:00:00:Z","depth":"2","parameterNumber":3,"parameterNumberName":"V-component_of_CURRENTS"},"data":[0,0,0,0,0,0,0,0,0,0,0,0,0,0,0,0,0,0,0,0,0,0,0,0,0,0,0,0,0,0,0,0,0,0,0,0,0,0,0,0,0,0,0,0,0,0,0,0,0,0,0,0,0,0,0,0,0,0,-0.0011,-0.0012,0,-0.0069,-0.0069,-0.007,-0.0109,-0.0109,-0.011,-0.011,-0.0205,-0.0208,-0.021,0,0,0,0,0,0,0,0,0,0,0,0,0,0.0009,0.001,-0.0011,-0.0012,-0.0013,-0.0069,-0.0069,-0.007,-0.0109,-0.0109,-0.011,-0.011,-0.0205,-0.0207,-0.021,0,0,0,0,0,0,0,0,0,0,0,0,0,-0.0018,0.001,-0.0011,-0.0039,-0.0042,-0.0069,-0.0069,-0.007,-0.0109,-0.0109,-0.011,-0.011,-0.0204,-0.0207,-0.021,-0.0221,0,0,-0.022,-0.0222,0,0,0,0,0,0,0,0,-0.0016,-0.0019,-0.0034,-0.0037,-0.0041,-0.0083,-0.0097,-0.0123,-0.0109,-0.0083,-0.011,-0.011,-0.0168,-0.0174,-0.0182,-0.0225,-0.0229,-0.0221,-0.0223,-0.0224,-0.0225,0,0,0,0,0,0,0,-0.0014,-0.0017,-0.0033,-0.0035,-0.0039,-0.0068,-0.0072,-0.0102,-0.0122,-0.0085,-0.0088,-0.0096,-0.017,-0.0179,-0.0185,-0.0231,-0.0221,-0.0224,-0.0226,-0.0227,-0.0281,-0.0281,0,0,0,0,0,0,-0.0005,-0.0014,-0.0031,-0.0035,-0.0031,-0.0068,-0.0072,-0.0068,-0.0121,-0.0129,-0.0095,-0.0097,-0.0173,-0.0181,-0.0189,-0.0202,-0.0224,-0.0227,-0.0229,-0.0282,-0.0281,-0.0281,0,0,0,0,0,0,-0.0004,-0.0006,-0.0029,-0.0028,-0.0033,-0.0068,-0.0063,-0.0069,-0.0079,-0.0128,-0.0137,-0.0099,-0.0174,-0.0184,-0.0216,-0.0206,-0.0229,-0.0232,-0.0283,-0.0282,-0.0281,-0.0231,0,0,0,0,0,0,-0.0003,-0.0005,0.0001,-0.0026,-0.0032,-0.0042,-0.0063,-0.007,-0.0083,-0.0087,-0.0134,-0.0144,-0.0175,-0.0211,-0.0219,-0.0211,-0.0234,-0.0283,-0.0282,-0.0281,-0.0233,-0.0228,-0.0224,0,0,0,0,0,-0.0002,0.0008,0.0002,-0.0001,-0.0023,-0.0042,-0.0047,-0.0074,-0.0083,-0.0085,-0.0118,-0.0142,-0.021,-0.0213,-0.0223,-0.0216,-0.0284,-0.0283,-0.0281,-0.0235,-0.0229,-0.0224,0,0,0,0,0,0,0.0008,0.0004,-0.0003,0.0002,-0.0017,-0.0048,-0.0054,-0.0069,-0.0096,-0.0103,-0.0143,-0.0155,-0.0181,-0.0202,-0.0205,-0.0227,-0.0248,-0.0248,-0.0209,-0.0204,-0.0199,-0.0169,-0.0237,0,0,0,0,0,0.0017,0.0031,0.001,0.0013,0.0007,-0.0021,-0.0032,-0.0052,-0.0079,-0.0091,-0.012,-0.0152,-0.0182,-0.0196,-0.0229,-0.0241,-0.0262,-0.024,-0.0236,-0.0232,-0.0213,-0.024,-0.0236,-0.0277,-0.0277,-0.0277,0,0,0.0024,0.002,0.0029,0.0017,0.0001,-0.0,-0.0028,-0.0045,-0.0041,-0.0099,-0.0101,-0.0144,-0.0184,-0.0202,-0.0214,-0.0219,-0.0234,-0.023,-0.0226,-0.021,-0.0238,-0.0234,-0.023,-0.0276,-0.0276,-0.0276,0,0,0.0029,0.0039,0.0045,0.0044,0.0022,0.001,0.0009,-0.0019,-0.0024,-0.004,-0.0078,-0.011,-0.0149,-0.0173,-0.019,-0.0178,-0.0215,-0.0189,-0.0137,-0.0163,-0.016,-0.0157,-0.019,-0.019,-0.0179,-0.0179,-0.0179,0,0.0039,0.0044,0.004,0.0044,0.0049,0.0021,0.0025,0.0021,-0.0012,-0.0008,-0.0034,-0.0086,-0.013,-0.0141,-0.014,-0.0167,-0.019,-0.0156,-0.0157,-0.0155,-0.0153,-0.0187,-0.0188,-0.0176,-0.0177,-0.0177,-0.0177,0,0.0039,0.0055,0.006,0.0069,0.007,0.0072,0.0068,0.0076,0.0064,0.0051,0.0035,-0.0024,-0.0049,-0.0072,-0.0106,-0.0108,-0.0133,-0.0156,-0.017,-0.0146,-0.0183,-0.0185,-0.0173,-0.0174,-0.0174,-0.0175,0,0,0.0056,0.0061,0.0068,0.0089,0.0089,0.0099,0.012,0.0131,0.0162,0.0121,0.0146,0.0081,0.0049,0.0028,-0.002,-0.0043,-0.0068,-0.0086,-0.0089,-0.0115,-0.013,-0.0158,-0.0164,-0.0093,-0.0093,-0.0093,-0.0165,0,0.0063,0.0086,0.0078,0.012,0.0146,0.015,0.0179,0.0189,0.0195,0.0217,0.0166,0.0159,0.009,0.0077,0.004,-0.0033,-0.0069,-0.0046,-0.015,-0.0153,-0.0179,-0.0165,-0.0134,-0.0196,-0.0167,-0.0168,-0.0168,0,0.0075,0.0098,0.0125,0.018,0.0189,0.0199,0.0266,0.0286,0.0309,0.0314,0.0299,0.0264,0.0228,0.0163,0.0057,0.0075,-0.002,-0.0086,-0.009,-0.013,-0.0184,-0.0213,-0.0201,-0.0172,-0.0172,-0.0172,-0.0171,0,0.0112,0.0147,0.0174,0.0193,0.0231,0.0249,0.027,0.0307,0.0349,0.0379,0.041,0.0354,0.0342,0.0226,0.0089,0.0075,-0.0034,-0.0073,-0.0192,-0.0196,-0.0194,-0.0197,-0.0157,-0.0156,-0.0156,-0.0156,-0.0156,0,0.0145,0.018,0.0196,0.022,0.0286,0.0288,0.0353,0.0386,0.0421,0.0491,0.0454,0.0499,0.0359,0.0283,0.013,-0.0029,-0.0008,-0.0174,-0.021,-0.0177,-0.0178,-0.0175,-0.0176,-0.0159,-0.0158,-0.0158,-0.0157,0,0.0182,0.0186,0.0239,0.0277,0.0302,0.0349,0.0412,0.0477,0.0496,0.059,0.0606,0.0607,0.0531,0.0365,0.0191,0.0041,-0.0122,-0.0195,-0.0149,-0.0178,-0.0279,-0.0277,-0.0321,-0.0322,-0.0324,-0.0325,-0.0326,0,0.0198,0.0224,0.0289,0.034,0.0353,0.0421,0.049,0.0523,0.0601,0.0669,0.0733,0.069,0.0699,0.0432,0.0171,-0.0093,-0.0132,-0.0252,-0.0276,-0.0262,-0.0294,-0.0289,-0.0285,-0.0262,-0.0262,-0.0262,-0.0263,0,0.0249,0.0259,0.0312,0.0411,0.0484,0.058,0.0667,0.0737,0.0801,0.0876,0.0971,0.097,0.0739,0.0515,0.0148,-0.0035,-0.0204,-0.0266,-0.0253,-0.0224,-0.0212,-0.0241,-0.0238,-0.0265,-0.0264,-0.0264,-0.0264,-0.0264,0.0292,0.0345,0.041,0.051,0.0606,0.0732,0.083,0.0935,0.1063,0.1184,0.115,0.1163,0.0865,0.0437,0.0108,-0.0227,-0.0219,-0.0336,-0.0333,-0.033,-0.0309,-0.03,-0.0366,-0.0366,-0.0366,-0.0367,-0.0367,0,0.0358,0.0417,0.0513,0.0638,0.0756,0.0787,0.096,0.1066,0.1244,0.1332,0.1389,0.1133,0.0848,0.0506,0.0007,-0.0307,-0.0324,-0.0396,-0.0346,-0.0342,-0.0339,-0.0317,-0.0376,-0.0377,-0.0378,-0.0379,0,0,0.0398,0.05,0.0554,0.0753,0.0842,0.102,0.1129,0.1283,0.1388,0.1492,0.1496,0.1418,0.0987,0.0626,0.0198,-0.0082,-0.0136,-0.0137,-0.0096,0.0018,0.0025,-0.0274,-0.0232,0,0,0,0,0]}],[{"header":{"parameterUnit":"m.s-1","parameterCategory":2,"la1":30.2991,"la2":30.254,"lo1":-89.0895,"lo2":-89.0444,"dy":0.0017,"dx":0.0017,"nx":28,"ny":28,"refTime":"2025-03-31T03:00:00:Z","depth":"4","parameterNumber":2,"parameterNumberName":"U-component_of_CURRENTS"},"data":[0,0,0,0,0,0,0,0,0,0,0,0,0,0,0,0,0,0,0,0,0,0,0,0,0,0,0,0,0,0,0,0,0,0,0,0,0,0,0,0,0,0,0,0,0,0,0,0,0,0,0,0,0,0,0,0,0,0,0.1446,0.1446,0,0.1501,0.1501,0.1502,0.1573,0.1574,0.1575,0.1576,0.1653,0.1654,0.1655,0,0,0,0,0,0,0,0,0,0,0,0,0,0.138,0.1381,0.1446,0.1447,0.1447,0.1501,0.1501,0.1502,0.1573,0.1574,0.1576,0.1577,0.1653,0.1654,0.1655,0,0,0,0,0,0,0,0,0,0,0,0,0,0.1421,0.1382,0.1446,0.1488,0.1492,0.15,0.1501,0.1503,0.1573,0.1575,0.1576,0.1577,0.1652,0.1654,0.1655,0.1634,0,0,0.166,0.1661,0,0,0,0,0,0,0,0,0.1418,0.1423,0.1481,0.1485,0.149,0.1531,0.1506,0.1547,0.1573,0.1544,0.1576,0.1578,0.1612,0.1617,0.1626,0.1638,0.1641,0.1661,0.1662,0.1662,0.1663,0,0,0,0,0,0,0,0.1415,0.1421,0.1469,0.1481,0.1487,0.1496,0.1504,0.1514,0.157,0.1546,0.1551,0.1555,0.1615,0.1624,0.1628,0.1643,0.1661,0.1662,0.1663,0.1664,0.1759,0.1761,0,0,0,0,0,0,0.1405,0.1418,0.1467,0.1471,0.1455,0.1496,0.1505,0.1517,0.157,0.1579,0.1553,0.1558,0.162,0.1626,0.1631,0.1713,0.1662,0.1664,0.1665,0.1758,0.176,0.1761,0,0,0,0,0,0,0.1404,0.1409,0.1465,0.1444,0.1452,0.1495,0.1509,0.1517,0.1554,0.1574,0.1584,0.1584,0.1622,0.1629,0.1683,0.1713,0.1664,0.1666,0.1756,0.1758,0.1761,0.1811,0,0,0,0,0,0,0.1402,0.1409,0.143,0.1444,0.1453,0.1481,0.1507,0.1517,0.1551,0.1558,0.1603,0.161,0.1624,0.1681,0.1685,0.1714,0.1667,0.1754,0.1757,0.176,0.1807,0.1815,0.1821,0,0,0,0,0,0.1399,0.1414,0.1431,0.1438,0.1476,0.1481,0.1487,0.1523,0.1551,0.1564,0.1615,0.1611,0.1702,0.1683,0.1688,0.1718,0.1752,0.1756,0.176,0.1804,0.1813,0.1821,0,0,0,0,0,0,0.1375,0.1423,0.1442,0.1466,0.1478,0.1493,0.1515,0.1533,0.1582,0.1605,0.163,0.164,0.1692,0.17,0.1679,0.1756,0.1726,0.1731,0.1759,0.1767,0.1774,0.1791,0.1669,0,0,0,0,0,0.1382,0.1425,0.1442,0.1461,0.1473,0.1498,0.1513,0.1534,0.1567,0.1592,0.1631,0.1674,0.1703,0.1734,0.1753,0.1798,0.1814,0.1821,0.1828,0.1834,0.1852,0.1908,0.1922,0.1773,0.1773,0.1773,0,0,0.1368,0.1408,0.1425,0.1462,0.1483,0.15,0.1513,0.1538,0.1576,0.159,0.1674,0.1692,0.1717,0.177,0.1795,0.1789,0.1883,0.1838,0.1843,0.1858,0.1913,0.1928,0.1941,0.1775,0.1775,0.1775,0,0,0.1356,0.1407,0.1433,0.1451,0.149,0.1515,0.1526,0.1562,0.1611,0.1677,0.1695,0.1743,0.1802,0.1827,0.1845,0.19,0.1906,0.1905,0.197,0.2024,0.2037,0.2048,0.208,0.2094,0.1922,0.1923,0.1923,0,0.135,0.1385,0.1432,0.1453,0.1477,0.1524,0.1538,0.1589,0.1646,0.1693,0.1719,0.1817,0.1833,0.1891,0.1922,0.1916,0.1946,0.1934,0.2034,0.2045,0.2056,0.2086,0.2101,0.1925,0.1925,0.1925,0.1925,0,0.1333,0.138,0.1394,0.1459,0.1482,0.1508,0.1568,0.1632,0.1709,0.1756,0.1851,0.1892,0.1954,0.1961,0.1969,0.2046,0.204,0.2023,0.2011,0.2074,0.2102,0.2116,0.193,0.1929,0.1928,0.1927,0,0,0.1302,0.1376,0.139,0.1425,0.1497,0.1513,0.16,0.1683,0.1759,0.1846,0.1935,0.2004,0.2039,0.2061,0.207,0.2127,0.2222,0.2126,0.2127,0.2156,0.2344,0.219,0.2191,0.2233,0.2236,0.2238,0.2329,0,0.1293,0.1339,0.1381,0.1435,0.1465,0.1543,0.1618,0.1701,0.1805,0.1909,0.1983,0.2065,0.2074,0.2116,0.2177,0.2212,0.2265,0.2199,0.2281,0.2283,0.2138,0.2204,0.2248,0.234,0.2343,0.2345,0.2347,0,0.1273,0.1321,0.1363,0.1457,0.1477,0.152,0.1662,0.1733,0.1878,0.1963,0.2068,0.2125,0.2231,0.2221,0.2353,0.2319,0.2345,0.2366,0.237,0.2222,0.2156,0.2266,0.2373,0.2371,0.2369,0.2367,0.2366,0,0.1236,0.1318,0.1366,0.139,0.1489,0.1546,0.1619,0.1755,0.1839,0.2005,0.2082,0.2209,0.2292,0.2366,0.2433,0.2414,0.2555,0.2523,0.2403,0.2392,0.248,0.2467,0.2604,0.2604,0.2604,0.2603,0.2603,0,0.1216,0.1261,0.1363,0.1381,0.1461,0.1535,0.1642,0.1741,0.1882,0.1973,0.2109,0.2193,0.2342,0.2432,0.2469,0.2488,0.2592,0.243,0.2413,0.2496,0.2484,0.249,0.2475,0.2607,0.2606,0.2605,0.2605,0,0.1159,0.1227,0.1282,0.1394,0.1439,0.1494,0.1637,0.1713,0.1865,0.1987,0.2043,0.2224,0.2353,0.2454,0.2574,0.2521,0.2551,0.2518,0.2608,0.2592,0.2342,0.233,0.2406,0.2402,0.2398,0.2395,0.2392,0,0.1127,0.1153,0.1267,0.1309,0.1366,0.1469,0.1539,0.1693,0.177,0.1984,0.2024,0.2201,0.2306,0.2362,0.2471,0.2529,0.2494,0.2484,0.241,0.235,0.2328,0.2321,0.2313,0.2386,0.2385,0.2384,0.2383,0,0.1061,0.1114,0.1159,0.1246,0.1322,0.1394,0.1505,0.1548,0.1726,0.1873,0.1978,0.2056,0.2183,0.2282,0.2338,0.2368,0.2483,0.2444,0.2451,0.2381,0.2327,0.2306,0.2303,0.237,0.2372,0.2373,0.2374,0,0.1016,0.1028,0.1098,0.1167,0.1255,0.1297,0.1366,0.1463,0.1554,0.1784,0.1814,0.2001,0.2161,0.2198,0.2251,0.2274,0.2243,0.2164,0.2186,0.2201,0.2092,0.199,0.1932,0,0,0,0,0,0.0967,0.097,0.1018,0.1076,0.1157,0.1208,0.1336,0.1411,0.1579,0.161,0.171,0.182,0.1924,0.2019,0.2007,0.2157,0.2243,0.213,0.2159,0.2297,0.2312,0.2201,0,0,0,0,0,0,0.093,0.0966,0.098,0.0992,0.1016,0.1089,0.1163,0.1273,0.1305,0.1487,0.1561,0.1699,0.1833,0.1914,0.1967,0.1995,0.1975,0.2245,0.224,0.2288,0.2302,0.2314,0.2206,0,0,0,0,0]},{"header":{"parameterUnit":"m.s-1","parameterCategory":2,"la1":30.2991,"la2":30.254,"lo1":-89.0895,"lo2":-89.0444,"dy":0.0017,"dx":0.0017,"nx":28,"ny":28,"refTime":"2025-03-31T03:00:00:Z","depth":"4","parameterNumber":3,"parameterNumberName":"V-component_of_CURRENTS"},"data":[0,0,0,0,0,0,0,0,0,0,0,0,0,0,0,0,0,0,0,0,0,0,0,0,0,0,0,0,0,0,0,0,0,0,0,0,0,0,0,0,0,0,0,0,0,0,0,0,0,0,0,0,0,0,0,0,0,0,0.0125,0.0125,0,0.0093,0.0092,0.0091,0.0053,0.0052,0.0052,0.0051,-0.0005,-0.0007,-0.0008,0,0,0,0,0,0,0,0,0,0,0,0,0,0.0118,0.0119,0.0125,0.0125,0.0125,0.0093,0.0092,0.0091,0.0053,0.0052,0.0052,0.0051,-0.0005,-0.0006,-0.0008,0,0,0,0,0,0,0,0,0,0,0,0,0,0.0105,0.0119,0.0126,0.0104,0.0102,0.0093,0.0092,0.0091,0.0053,0.0052,0.0052,0.0051,-0.0005,-0.0006,-0.0008,-0.0008,0,0,-0.0013,-0.0014,0,0,0,0,0,0,0,0,0.0106,0.0105,0.0107,0.0105,0.0103,0.0078,0.0069,0.0058,0.0053,0.0069,0.0051,0.0051,0.0022,0.0018,0.001,-0.001,-0.0013,-0.0014,-0.0015,-0.0015,-0.0016,0,0,0,0,0,0,0,0.0107,0.0106,0.011,0.0107,0.0104,0.0083,0.0081,0.0066,0.0047,0.0067,0.0065,0.0065,0.0021,0.0012,0.0009,-0.0014,-0.0013,-0.0015,-0.0016,-0.0017,-0.003,-0.0029,0,0,0,0,0,0,0.0119,0.0107,0.0111,0.0109,0.0106,0.0084,0.0081,0.0085,0.0047,0.0042,0.0066,0.0064,0.0015,0.0011,0.0006,0.0008,-0.0015,-0.0017,-0.0018,-0.0031,-0.003,-0.0029,0,0,0,0,0,0,0.0119,0.0119,0.0112,0.0109,0.0107,0.0086,0.0089,0.0084,0.0078,0.0047,0.0041,0.0065,0.0015,0.0009,0.0001,0.0005,-0.0018,-0.0019,-0.0032,-0.003,-0.003,0.0009,0,0,0,0,0,0,0.0118,0.012,0.0125,0.011,0.0108,0.0115,0.009,0.0084,0.008,0.0077,0.0045,0.0038,0.0014,0.0004,-0.0001,0.0003,-0.0021,-0.0032,-0.0031,-0.003,0.0007,0.0011,0.0015,0,0,0,0,0,0.0118,0.0131,0.0126,0.0127,0.0117,0.0116,0.0112,0.0093,0.0081,0.0084,0.0063,0.004,0.0009,0.0003,-0.0002,0.0,-0.0033,-0.0031,-0.003,0.0005,0.001,0.0015,0,0,0,0,0,0,0.0138,0.0128,0.0122,0.0133,0.0129,0.011,0.011,0.01,0.0085,0.0082,0.0049,0.0042,0.0038,0.0018,0.0013,0.0002,-0.0016,-0.0015,0.0013,0.0017,0.0021,0.0016,-0.0022,0,0,0,0,0,0.0145,0.0147,0.0139,0.0149,0.0147,0.0131,0.0127,0.0119,0.0105,0.0097,0.0073,0.0052,0.004,0.0028,0.0015,0.0008,-0.0028,0.0007,0.0011,0.0015,0.0008,-0.0038,-0.0039,-0.0024,-0.0024,-0.0024,0,0,0.0159,0.0151,0.0155,0.0153,0.0144,0.0146,0.0127,0.0129,0.0129,0.0094,0.0085,0.0069,0.0044,0.0037,0.0033,0.0019,-0.0007,0.0017,0.002,0.0011,-0.0036,-0.0038,-0.004,-0.0023,-0.0023,-0.0023,0,0,0.0182,0.0178,0.0185,0.0182,0.0177,0.0165,0.0169,0.0155,0.0147,0.0143,0.0119,0.0106,0.0083,0.0063,0.0051,0.0071,0.0021,0.007,0.0077,0.0033,0.0031,0.0029,-0.0017,-0.0023,0.0065,0.0065,0.0065,0,0.0194,0.0205,0.0189,0.0194,0.0196,0.0175,0.0188,0.0176,0.0162,0.0155,0.0146,0.011,0.0093,0.0076,0.0083,0.0078,0.0042,0.0059,0.0037,0.0034,0.003,-0.0016,-0.0024,0.0067,0.0067,0.0067,0.0066,0,0.0221,0.023,0.0235,0.0229,0.0229,0.0239,0.0224,0.0219,0.0206,0.0189,0.0174,0.0147,0.0121,0.0119,0.0105,0.008,0.0059,0.0052,0.0021,0.0031,-0.0018,-0.0027,0.007,0.0069,0.0069,0.0068,0,0,0.0241,0.0252,0.0252,0.0262,0.0251,0.0257,0.0254,0.0245,0.0241,0.0216,0.0201,0.0181,0.0157,0.0142,0.0121,0.0083,0.0037,0.0058,0.0055,0.0007,-0.0068,-0.0059,-0.0069,0.0021,0.0019,0.0018,-0.0092,0,0.0263,0.0289,0.0283,0.0307,0.032,0.0302,0.0302,0.029,0.0268,0.0245,0.0206,0.019,0.0168,0.016,0.0116,0.0065,0.0015,0.0067,-0.0066,-0.007,-0.0068,-0.0078,0.0014,-0.0099,-0.0102,-0.0103,-0.0104,0,0.0284,0.03,0.0333,0.0351,0.0355,0.0362,0.0356,0.0357,0.0315,0.0297,0.0256,0.022,0.017,0.015,0.0039,0.0071,0.0001,-0.0048,-0.0054,-0.0068,-0.0078,-0.0112,-0.0121,-0.012,-0.0119,-0.0118,-0.0117,0,0.0306,0.0331,0.0361,0.0368,0.0383,0.0392,0.0396,0.0371,0.0383,0.0327,0.032,0.0239,0.0215,0.0111,0.0015,0.002,-0.0118,-0.0123,-0.019,-0.0191,-0.0184,-0.018,-0.0221,-0.0221,-0.0221,-0.022,-0.022,0,0.0325,0.0347,0.0377,0.0397,0.0431,0.0427,0.0457,0.0438,0.0428,0.0442,0.0354,0.0341,0.0204,0.0114,0.0008,-0.0115,-0.0128,-0.0198,-0.0221,-0.0163,-0.0156,-0.0191,-0.0186,-0.0225,-0.0224,-0.0223,-0.0222,0,0.0332,0.0354,0.0396,0.0432,0.0445,0.0469,0.0516,0.0537,0.0514,0.0524,0.0514,0.0417,0.03,0.0152,-0.0014,-0.0103,-0.0233,-0.0279,-0.0212,-0.0227,-0.028,-0.0272,-0.0371,-0.0371,-0.0372,-0.0372,-0.0373,0,0.0335,0.0361,0.0427,0.0462,0.0479,0.0525,0.0562,0.0575,0.0603,0.058,0.0586,0.0476,0.0395,0.0164,-0.0,-0.0226,-0.0251,-0.0333,-0.0308,-0.0285,-0.0297,-0.0288,-0.0279,-0.0373,-0.0374,-0.0374,-0.0374,0,0.0345,0.0373,0.0414,0.0491,0.0543,0.0607,0.066,0.0694,0.0711,0.0694,0.0653,0.0521,0.038,0.0185,0.0004,-0.0153,-0.0287,-0.034,-0.0339,-0.0317,-0.029,-0.0299,-0.029,-0.0376,-0.0376,-0.0375,-0.0375,0,0.0353,0.0384,0.0451,0.0514,0.0588,0.0664,0.0696,0.0735,0.0765,0.0742,0.0729,0.0564,0.0468,0.0223,0.0061,-0.01,-0.0139,-0.0192,-0.02,-0.02,-0.0115,-0.0054,-0.0094,0,0,0,0,0,0.0359,0.0404,0.0469,0.0551,0.0628,0.0674,0.0749,0.0778,0.0802,0.0788,0.0765,0.0634,0.0389,0.0275,0.0118,0.0038,-0.0178,-0.0153,-0.0245,-0.0386,-0.0384,-0.0312,0,0,0,0,0,0,0.0368,0.043,0.0469,0.0571,0.0632,0.0723,0.0778,0.0796,0.0791,0.0784,0.066,0.059,0.0353,0.0482,0.0113,0.0061,-0.002,-0.0271,-0.0275,-0.0388,-0.0386,-0.0384,-0.0309,0,0,0,0,0]}]]